• In Austria
  • List of Countries
  • For 7 days
  • Water Temperature
  • Satellite Maps
  • Weather Map
  • News
  • Weather Widgets
  • user-avatar
    Login

    Hourly Weather Quito

    Today, 17 February, Saturday

    Time Temperature Precipitation Wind Pressure Humidity
    00:00 +18°C° 0.2 mm 1 mps 622 mmHg 94%
    01:00 +18°C° 0.2 mm 1 mps 622 mmHg 95%
    02:00 +18°C° 0.3 mm 1 mps 622 mmHg 94%
    03:00 +18°C° 0.3 mm 1 mps 622 mmHg 94%
    04:00 +18°C° 0.3 mm 1 mps 621 mmHg 94%
    05:00 +18°C° 0.1 mm 1 mps 622 mmHg 94%
    06:00 +18°C° 0.1 mm 1 mps 622 mmHg 93%
    07:00 +19°C° 0 mm 1 mps 622 mmHg 90%
    08:00 +19°C° 0.5 mm 0 mps 623 mmHg 83%
    09:00 +21°C° 0.5 mm 0 mps 624 mmHg 76%
    10:00 +24°C° 0.5 mm 0 mps 624 mmHg 69%
    11:00 +26°C° 0.7 mm 1 mps 624 mmHg 67%
    12:00 +27°C° 0.7 mm 1 mps 623 mmHg 65%
    13:00 +26°C° 0 mm 1 mps 623 mmHg 66%
    14:00 +25°C° 1 mm 1 mps 623 mmHg 68%
    15:00 +25°C° 1 mm 1 mps 622 mmHg 70%
    16:00 +25°C° 1 mm 1 mps 622 mmHg 73%
    17:00 +23°C° 1.4 mm 1 mps 622 mmHg 79%
    18:00 +20°C° 1.4 mm 2 mps 621 mmHg 85%
    19:00 +18°C° 1.4 mm 2 mps 621 mmHg 91%
    20:00 +18°C° 0.9 mm 2 mps 621 mmHg 92%
    21:00 +18°C° 0.9 mm 2 mps 622 mmHg 93%
    22:00 +17°C° 0.9 mm 2 mps 622 mmHg 94%
    23:00 +17°C° 0.3 mm 2 mps 622 mmHg 94%

    Tomorrow, 18 February, Sunday

    Time Temperature Precipitation Wind Pressure Humidity
    00:00 +17°C° 0.3 mm 2 mps 621 mmHg 95%
    01:00 +17°C° 0.3 mm 2 mps 621 mmHg 95%
    02:00 +16°C° 0 mm 2 mps 621 mmHg 95%
    03:00 +16°C° 0 mm 1 mps 621 mmHg 95%
    04:00 +16°C° 0 mm 1 mps 620 mmHg 95%
    05:00 +16°C° 0 mm 1 mps 621 mmHg 95%
    06:00 +18°C° 0 mm 1 mps 621 mmHg 94%
    07:00 +18°C° 0 mm 1 mps 621 mmHg 94%
    08:00 +19°C° 0.2 mm 2 mps 622 mmHg 87%
    09:00 +21°C° 0.2 mm 3 mps 623 mmHg 79%
    10:00 +22°C° 0.2 mm 3 mps 623 mmHg 72%
    11:00 +24°C° 0.3 mm 3 mps 623 mmHg 70%
    12:00 +25°C° 0.3 mm 3 mps 622 mmHg 67%
    13:00 +26°C° 0.3 mm 3 mps 622 mmHg 64%
    14:00 +25°C° 0.9 mm 3 mps 622 mmHg 68%
    15:00 +25°C° 0.9 mm 3 mps 621 mmHg 73%
    16:00 +24°C° 0.9 mm 3 mps 621 mmHg 77%
    17:00 +21°C° 1.4 mm 2 mps 621 mmHg 82%
    18:00 +21°C° 1.4 mm 1 mps 621 mmHg 87%
    19:00 +19°C° 1.4 mm 1 mps 621 mmHg 92%
    20:00 +19°C° 1.6 mm 1 mps 621 mmHg 92%
    21:00 +17°C° 1.6 mm 0 mps 621 mmHg 93%
    22:00 +17°C° 1.6 mm 0 mps 622 mmHg 93%
    23:00 +16°C° 0.3 mm 0 mps 621 mmHg 94%

    Day after tomorrow, 19 February, Monday

    Time Temperature Precipitation Wind Pressure Humidity
    00:00 +18°C° 0.3 mm 1 mps 621 mmHg 94%
    01:00 +18°C° 0.3 mm 1 mps 620 mmHg 95%
    02:00 +18°C° 0 mm 1 mps 620 mmHg 95%
    03:00 +16°C° 0 mm 1 mps 620 mmHg 96%
    04:00 +16°C° 0 mm 1 mps 620 mmHg 96%
    05:00 +16°C° 0 mm 1 mps 620 mmHg 95%
    06:00 +18°C° 0 mm 1 mps 621 mmHg 94%
    07:00 +18°C° 0 mm 1 mps 621 mmHg 94%
    08:00 +20°C° 0.1 mm 1 mps 622 mmHg 87%
    09:00 +22°C° 0.1 mm 1 mps 623 mmHg 79%
    10:00 +24°C° 0.1 mm 1 mps 623 mmHg 72%
    11:00 +24°C° 0.6 mm 1 mps 623 mmHg 71%
    12:00 +25°C° 0.6 mm 1 mps 622 mmHg 70%
    13:00 +25°C° 0.6 mm 1 mps 622 mmHg 68%
    14:00 +24°C° 1.3 mm 1 mps 621 mmHg 73%
    15:00 +24°C° 1.3 mm 1 mps 621 mmHg 78%
    16:00 +23°C° 1.3 mm 1 mps 620 mmHg 84%
    17:00 +22°C° 1.1 mm 1 mps 620 mmHg 87%
    18:00 +20°C° 1.1 mm 1 mps 620 mmHg 89%
    19:00 +17°C° 1.1 mm 0 mps 621 mmHg 92%
    20:00 +17°C° 0.7 mm 0 mps 621 mmHg 93%
    21:00 +17°C° 0.7 mm 0 mps 621 mmHg 93%
    22:00 +17°C° 0.7 mm 0 mps 622 mmHg 93%
    23:00 +16°C° 0.4 mm 0 mps 621 mmHg 93%

    20 February, Tuesday

    Time Temperature Precipitation Wind Pressure Humidity
    00:00 +16°C° 0.4 mm 0 mps 621 mmHg 94%
    01:00 +16°C° 0.4 mm 0 mps 620 mmHg 94%
    02:00 +16°C° 0.8 mm 0 mps 620 mmHg 95%
    03:00 +16°C° 0.8 mm 0 mps 620 mmHg 95%
    04:00 +16°C° 0.8 mm 0 mps 620 mmHg 95%
    05:00 +16°C° 0.9 mm 0 mps 620 mmHg 95%
    06:00 +16°C° 0.9 mm 0 mps 621 mmHg 95%
    07:00 +16°C° 0.9 mm 0 mps 621 mmHg 95%
    08:00 +19°C° 0.5 mm 1 mps 622 mmHg 92%
    09:00 +20°C° 0.5 mm 1 mps 622 mmHg 89%
    10:00 +21°C° 0.5 mm 1 mps 623 mmHg 86%
    11:00 +22°C° 0.9 mm 1 mps 622 mmHg 84%
    12:00 +23°C° 0.9 mm 1 mps 622 mmHg 81%
    13:00 +24°C° 0.9 mm 2 mps 621 mmHg 79%
    14:00 +23°C° 1.4 mm 2 mps 621 mmHg 81%
    15:00 +23°C° 1.4 mm 2 mps 620 mmHg 82%
    16:00 +23°C° 1.4 mm 2 mps 620 mmHg 84%
    17:00 +20°C° 1.1 mm 2 mps 620 mmHg 87%
    18:00 +19°C° 1.1 mm 2 mps 620 mmHg 91%
    19:00 +18°C° 1.1 mm 2 mps 620 mmHg 94%
    20:00 +18°C° 0.3 mm 2 mps 620 mmHg 94%
    21:00 +18°C° 0.3 mm 1 mps 621 mmHg 95%
    22:00 +18°C° 0.3 mm 1 mps 621 mmHg 96%
    23:00 +18°C° 0.3 mm 1 mps 621 mmHg 96%

    21 February, Wednesday

    Time Temperature Precipitation Wind Pressure Humidity
    00:00 +17°C° 0.3 mm 2 mps 620 mmHg 97%
    01:00 +16°C° 0.3 mm 2 mps 620 mmHg 97%
    02:00 +16°C° 0.2 mm 2 mps 620 mmHg 97%
    03:00 +16°C° 0.2 mm 1 mps 619 mmHg 98%
    04:00 +16°C° 0.2 mm 1 mps 619 mmHg 98%
    05:00 +16°C° 0 mm 2 mps 620 mmHg 97%
    06:00 +17°C° 0 mm 2 mps 621 mmHg 96%
    07:00 +17°C° 0 mm 2 mps 621 mmHg 95%
    08:00 +18°C° 0.1 mm 2 mps 622 mmHg 90%
    09:00 +20°C° 0.1 mm 2 mps 622 mmHg 85%
    10:00 +21°C° 0.1 mm 2 mps 623 mmHg 80%
    11:00 +23°C° 0.5 mm 2 mps 622 mmHg 76%
    12:00 +24°C° 0.5 mm 2 mps 622 mmHg 72%
    13:00 +25°C° 0.5 mm 2 mps 621 mmHg 68%
    14:00 +25°C° 0.8 mm 2 mps 621 mmHg 72%
    15:00 +24°C° 0.8 mm 2 mps 620 mmHg 75%
    16:00 +24°C° 0.8 mm 2 mps 620 mmHg 78%
    17:00 +21°C° 1.6 mm 2 mps 620 mmHg 83%
    18:00 +20°C° 1.6 mm 2 mps 620 mmHg 88%
    19:00 +18°C° 1.6 mm 2 mps 620 mmHg 93%
    20:00 +18°C° 1.1 mm 2 mps 620 mmHg 94%
    21:00 +18°C° 1.1 mm 2 mps 621 mmHg 94%
    22:00 +17°C° 1.1 mm 2 mps 621 mmHg 95%
    23:00 +17°C° 1.3 mm 2 mps 621 mmHg 95%

    22 February, Thursday

    Time Temperature Precipitation Wind Pressure Humidity
    00:00 +17°C° 1.3 mm 2 mps 620 mmHg 96%
    01:00 +17°C° 1.3 mm 2 mps 620 mmHg 96%
    02:00 +17°C° 0.7 mm 2 mps 620 mmHg 96%
    03:00 +17°C° 0.7 mm 2 mps 619 mmHg 96%
    04:00 +16°C° 0.7 mm 2 mps 619 mmHg 96%
    05:00 +16°C° 0.2 mm 2 mps 619 mmHg 96%
    06:00 +16°C° 0.2 mm 2 mps 620 mmHg 96%
    07:00 +16°C° 0.2 mm 2 mps 620 mmHg 95%
    08:00 +17°C° 0.2 mm 2 mps 621 mmHg 93%
    09:00 +18°C° 0.2 mm 2 mps 621 mmHg 91%
    10:00 +19°C° 0.2 mm 2 mps 621 mmHg 89%
    11:00 +20°C° 0.2 mm 2 mps 621 mmHg 84%
    12:00 +21°C° 0.2 mm 2 mps 621 mmHg 80%
    13:00 +22°C° 0.2 mm 3 mps 621 mmHg 75%
    14:00 +22°C° 0.3 mm 3 mps 620 mmHg 76%
    15:00 +22°C° 0.3 mm 3 mps 620 mmHg 77%
    16:00 +22°C° 0.3 mm 3 mps 620 mmHg 78%
    17:00 +20°C° 0.3 mm 2 mps 620 mmHg 82%
    18:00 +19°C° 0.3 mm 2 mps 620 mmHg 87%
    19:00 +18°C° 0.3 mm 2 mps 620 mmHg 91%
    20:00 +19°C° 0.1 mm 1 mps 620 mmHg 92%
    21:00 +18°C° 0.1 mm 1 mps 620 mmHg 93%
    22:00 +18°C° 0.1 mm 1 mps 620 mmHg 94%
    23:00 +18°C° 0.1 mm 1 mps 620 mmHg 94%
    Show more